Location: Bijele Vode
(45.2833°N, 16.2000°E)
Time: 07:15:51
(UTC+00:00)

Lacrosse 5 rocket - Pass Details

Date: 25 January 2021
Orbit: 465 x 630 km, 57.0° (Epoch: 04 March)

Event Time Altitude Azimuth Distance (km) Brightness Sun altitude
Exits shadow 04:50:11 25° 237° (WSW) 1,034 2.3 -16.3°
Maximum altitude 04:50:19 25° 233° (SW) 1,031 2.3 -16.3°
Drops below altitude 10° 04:53:25 10° 177° (S) 1,660 3.9 -15.7°
Sets 04:55:46 0° 163° (SSE) 2,515 5.1 -15.3°
